Regional Weather Roundup
Issued by NWS Cleveland, OH

Home | Current Version | Previous Version | Graphics & Text | Print | Product List | Glossary Off
Versions: 1 2 3 4 5 6 7 8 9 10 11 12 13 14 15 16 17 18 19 20 21 22 23 24 25 26 27 28 29 30 31 32 33 34 35 36 37 38 39 40 41 42 43 44 45 46 47 48 49 50

000
ASUS41 KCLE 101512
RWRCLE
OHIO REGIONAL WEATHER ROUNDUP
NATIONAL WEATHER SERVICE WILMINGTON, OH
1000 AM EST SAT DEC 10 2016

NOTE: "FAIR" INDICATES FEW OR NO CLOUDS BELOW 12,000 FEET WITH NO
SIGNIFICANT WEATHER AND/OR OBSTRUCTIONS TO VISIBILITY.

OHZ001>008-015>018-024>027-034-035-043-044-101600-
   NORTHWEST OHIO

CITY           SKY/WX    TMP DP  RH WIND       PRES   REMARKS
DEFIANCE       FAIR      24  14  65 VRB7      30.51S WCI  16
FINDLAY        CLOUDY    23  13  65 W13       30.49F WCI  11
TOLEDO EXPRESS FAIR      22  15  75 W13       30.49R WCI  10
TOLEDO EXEC    FAIR      24  16  71 SW10      30.50S WCI  14
LIMA           PTSUNNY   21  15  78 SW9       30.50F WCI  11
$$

OHZ009>014-019>023-028>033-038-089-101600-
   NORTHEAST OHIO

CITY           SKY/WX    TMP DP  RH WIND       PRES   REMARKS
CLE-HOPKINS    PTSUNNY   26  16  65 SW14      30.50R WCI  14
CLE-LAKEFRONT  CLOUDY    24  17  74 SW17      30.48R WCI  11
CUY CO. ARPT   LGT SNOW  25  18  74 W12G21    30.45R WCI  14
LORAIN-ELYRIA  CLOUDY    22  14  71 W14       30.49R WCI   9
ASHTABULA      SNOW      22  20  92 SW14      30.43R VSB 1/2 WCI   9
AKRON-CANTON   CLOUDY    23  14  68 SW13      30.47R WCI  11
WOOSTER        CLOUDY    22  15  75 W13       30.49R WCI  10
MANSFIELD      CLOUDY    20  14  77 SW10      30.47R WCI   9
YOUNGSTOWN     CLOUDY    24  15  68 SW16      30.43R WCI  11
$$

OHZ042-051>053-060>062-070>072-077>081-101600-
  SOUTHWEST OHIO

CITY           SKY/WX    TMP DP  RH WIND       PRES   REMARKS
CINC-COVINGTON PTSUNNY   24  18  77 SW6       30.56R WCI  17
CINC-LUNKEN    FAIR      26  19  74 SW6       30.61R WCI  19
HAMILTON       PTSUNNY   26  18  71 W6        30.59R WCI  19
DAYTON         FLURRIES  23  17  78 SW8       30.53S WCI  14
WRIGHT-PAT AFB NOT AVBL
DAYTON GENERAL CLOUDY    23  17  78 SW7       30.54R WCI  15
WILMINGTON     PTSUNNY   23  17  78 W8        30.54R WCI  14
$$

OHZ036-037-039>041-045>050-054>059-063>069-073>076-082>088-101600-
  CENTRAL AND SOUTHEAST OHIO

CITY           SKY/WX    TMP DP  RH WIND       PRES   REMARKS
COLUMBUS       LGT SNOW  23  19  85 W7        30.54R FOG     WCI  15
OSU AIRPORT    CLOUDY    23  16  74 W8        30.53R WCI  14
BOLTON FIELD   CLOUDY    25  19  80 W6        30.54R WCI  18
RICKENBACK AFB   N/A     24  18  78 SW9       30.55R WCI  14
NEWARK         LGT SNOW  23  19  85 SW7       30.53R FOG     WCI  15
MARION         CLOUDY    22  14  71 W10       30.51R WCI  11
LANCASTER      CLOUDY    24  18  77 SW8       30.55R WCI  15
ZANESVILLE     CLOUDY    25  17  72 W7        30.53R WCI  17
NEW PHILLY     FAIR      24  15  68 W7        30.52R WCI  16
$$




USA.gov is the U.S. government's official web portal to all federal, state and local government web resources and services.